Location: PSU-Greenbush Astrophysical Observatory
(37.5140°N, 94.9880°W)
Time: 01:08:57
(UTC-06:00)

Altair - Pass Details

Date: 25 January 2020
Orbit: 1502 x 1682 km, 47.2° (Epoch: 17 February)

Event Time Altitude Azimuth Distance (km) Brightness Sun altitude
Rises 07:35:35 0° 215° (SW) 4,823 10.0 0.4°
Reaches altitude 10° 07:38:44 10° 211° (SSW) 3,861 9.6 0.9°
Maximum altitude 07:48:20 56° 137° (SE) 1,924 8.6 2.7°
Drops below altitude 10° 07:58:09 10° 62° (ENE) 3,947 10.2 4.4°
Sets 08:01:24 0° 59° (ENE) 4,937 10.6 5.0°
